Time,TemperatureF,DewpointF,PressureIn,WindDirection,WindDirectionDegrees,WindSpeedMPH,WindSpeedGustMPH,Humidity,HourlyPrecipIn,Conditions,Clouds,dailyrainin,SoftwareType,DateUTC
2013-01-03 00:01:00,26.6,-4.6,30.04,West,270,3.5,3.5,25,0.00,CLR,,0.00,WeatherDisplay:10.37,2013-01-03 05:01:00,
2013-01-03 00:03:00,26.6,-4.6,30.04,North,0,4.6,4.6,25,0.00,CLR,,0.00,WeatherDisplay:10.37,2013-01-03 05:03:00,
2013-01-03 00:08:00,26.6,-4.6,30.04,South,180,2.3,2.3,25,0.00,CLR,,0.00,WeatherDisplay:10.37,2013-01-03 05:08:00,
2013-01-03 00:13:00,26.6,-4.6,30.04,NW,315,1.6,0.0,25,0.00,CLR,,0.00,WeatherDisplay:10.37,2013-01-03 05:13:00,
2013-01-03 00:18:00,26.6,-4.6,30.04,NW,315,3.5,3.5,25,0.00,CLR,,0.00,WeatherDisplay:10.37,2013-01-03 05:18:00,
2013-01-03 00:23:00,26.6,-4.6,30.04,NW,315,3.5,3.5,25,0.00,CLR,,0.00,WeatherDisplay:10.37,2013-01-03 05:23:00,
2013-01-03 00:28:00,26.6,-4.6,30.04,NW,315,2.3,0.0,25,0.00,CLR,,0.00,WeatherDisplay:10.37,2013-01-03 05:28:00,
2013-01-03 00:33:00,26.4,-4.7,30.04,NW,315,3.5,0.0,25,0.00,CLR,,0.00,WeatherDisplay:10.37,2013-01-03 05:33:00,
2013-01-03 00:38:00,26.2,-4.9,30.03,East,90,1.1,1.1,25,0.00,CLR,,0.00,WeatherDisplay:10.37,2013-01-03 05:38:00,
2013-01-03 00:43:00,26.1,-5.0,30.04,South,180,2.3,2.3,25,0.00,CLR,,0.00,WeatherDisplay:10.37,2013-01-03 05:43:00,
2013-01-03 00:48:00,26.1,-5.0,30.04,South,180,4.6,4.6,25,0.00,CLR,,0.00,WeatherDisplay:10.37,2013-01-03 05:48:00,
2013-01-03 00:53:00,25.9,-5.2,30.05,North,0,1.1,0.0,25,0.00,CLR,,0.00,WeatherDisplay:10.37,2013-01-03 05:53:00,
2013-01-03 00:58:00,25.7,-5.3,30.05,South,180,3.5,3.5,25,0.00,CLR,,0.00,WeatherDisplay:10.37,2013-01-03 05:58:00,
2013-01-03 01:03:00,25.7,-5.3,30.05,SSW,202,1.1,1.1,25,0.00,CLR,,0.00,WeatherDisplay:10.37,2013-01-03 06:03:00,
2013-01-03 01:08:00,25.7,-5.3,30.04,NW,315,2.3,2.3,25,0.00,CLR,,0.00,WeatherDisplay:10.37,2013-01-03 06:08:00,
2013-01-03 01:13:00,25.7,-5.3,30.04,WNW,292,3.5,3.5,25,0.00,CLR,,0.00,WeatherDisplay:10.37,2013-01-03 06:13:00,
2013-01-03 01:18:00,25.9,-5.2,30.04,SE,135,4.6,4.6,25,0.00,CLR,,0.00,WeatherDisplay:10.37,2013-01-03 06:18:00,
2013-01-03 01:23:00,25.9,-5.2,30.05,North,0,2.3,2.3,25,0.00,CLR,,0.00,WeatherDisplay:10.37,2013-01-03 06:23:00,
2013-01-03 01:28:00,26.1,-4.2,30.05,NE,45,3.5,3.5,26,0.00,CLR,,0.00,WeatherDisplay:10.37,2013-01-03 06:28:00,
2013-01-03 01:33:00,26.2,-4.1,30.05,WNW,292,2.3,2.3,26,0.00,CLR,,0.00,WeatherDisplay:10.37,2013-01-03 06:33:00,
2013-01-03 01:38:00,26.2,-4.1,30.04,NW,315,4.6,4.6,26,0.00,CLR,,0.00,WeatherDisplay:10.37,2013-01-03 06:38:00,
2013-01-03 01:43:00,26.4,-3.9,30.04,SW,225,4.6,0.0,26,0.00,CLR,,0.00,WeatherDisplay:10.37,2013-01-03 06:43:00,
2013-01-03 01:48:00,26.4,-3.9,30.05,NW,315,3.5,3.5,26,0.00,CLR,,0.00,WeatherDisplay:10.37,2013-01-03 06:48:00,
2013-01-03 01:53:00,26.4,-3.9,30.05,NW,315,3.5,3.5,26,0.00,CLR,,0.00,WeatherDisplay:10.37,2013-01-03 06:53:00,
2013-01-03 01:58:00,26.2,-4.9,30.05,West,270,3.5,3.5,25,0.00,CLR,,0.00,WeatherDisplay:10.37,2013-01-03 06:58:00,
2013-01-03 02:03:00,26.2,-4.9,30.05,SW,225,1.1,0.0,25,0.00,CLR,,0.00,WeatherDisplay:10.37,2013-01-03 07:03:00,
2013-01-03 02:08:00,26.2,-4.1,30.05,West,270,3.5,0.0,26,0.00,CLR,,0.00,WeatherDisplay:10.37,2013-01-03 07:08:00,
2013-01-03 02:13:00,26.2,-4.1,30.05,NW,315,1.1,1.1,26,0.00,CLR,,0.00,WeatherDisplay:10.37,2013-01-03 07:13:00,
2013-01-03 02:18:00,26.4,-3.9,30.06,West,270,4.6,4.6,26,0.00,CLR,,0.00,WeatherDisplay:10.37,2013-01-03 07:18:00,
2013-01-03 02:23:00,26.4,-3.9,30.05,West,270,3.5,0.0,26,0.00,CLR,,0.00,WeatherDisplay:10.37,2013-01-03 07:23:00,
2013-01-03 02:28:00,26.6,-3.7,30.06,NW,315,2.3,2.3,26,0.00,CLR,,0.00,WeatherDisplay:10.37,2013-01-03 07:28:00,
2013-01-03 02:33:00,26.8,-3.6,30.06,NW,315,3.5,3.5,26,0.00,CLR,,0.00,WeatherDisplay:10.37,2013-01-03 07:33:00,
2013-01-03 02:38:00,27.0,-4.3,30.06,West,270,3.5,3.5,25,0.00,CLR,,0.00,WeatherDisplay:10.37,2013-01-03 07:38:00,
2013-01-03 02:43:00,27.0,-4.3,30.06,NW,315,1.1,0.0,25,0.00,CLR,,0.00,WeatherDisplay:10.37,2013-01-03 07:43:00,
2013-01-03 02:48:00,27.0,-4.3,30.05,North,0,3.5,0.0,25,0.00,CLR,,0.00,WeatherDisplay:10.37,2013-01-03 07:48:00,
2013-01-03 02:53:00,27.0,-4.3,30.06,NW,315,3.5,3.5,25,0.00,CLR,,0.00,WeatherDisplay:10.37,2013-01-03 07:53:00,
2013-01-03 02:58:00,27.1,-4.1,30.06,NE,45,3.5,0.0,25,0.00,CLR,,0.00,WeatherDisplay:10.37,2013-01-03 07:58:00,
2013-01-03 03:03:00,27.1,-4.1,30.05,North,0,4.6,4.6,25,0.00,CLR,,0.00,WeatherDisplay:10.37,2013-01-03 08:03:00,
2013-01-03 03:08:00,27.3,-4.8,30.05,West,270,3.5,3.5,24,0.00,CLR,,0.00,WeatherDisplay:10.37,2013-01-03 08:08:00,
2013-01-03 03:13:00,27.3,-4.8,30.05,NW,315,4.6,4.6,24,0.00,CLR,,0.00,WeatherDisplay:10.37,2013-01-03 08:13:00,
2013-01-03 03:18:00,27.5,-4.6,30.05,NW,315,3.5,3.5,24,0.00,CLR,,0.00,WeatherDisplay:10.37,2013-01-03 08:18:00,
2013-01-03 03:23:00,27.3,-3.9,30.05,NW,315,3.5,3.5,25,0.00,CLR,,0.00,WeatherDisplay:10.37,2013-01-03 08:23:00,
2013-01-03 03:28:00,27.5,-3.8,30.05,NW,315,4.6,4.6,25,0.00,CLR,,0.00,WeatherDisplay:10.37,2013-01-03 08:28:00,
2013-01-03 03:33:00,27.5,-3.8,30.04,NW,315,6.9,6.9,25,0.00,CLR,,0.00,WeatherDisplay:10.37,2013-01-03 08:33:00,
2013-01-03 03:38:00,27.5,-3.8,30.04,NE,45,3.5,0.0,25,0.00,CLR,,0.00,WeatherDisplay:10.37,2013-01-03 08:38:00,
2013-01-03 03:43:00,27.5,-4.6,30.05,West,270,3.5,3.5,24,0.00,CLR,,0.00,WeatherDisplay:10.37,2013-01-03 08:43:00,
2013-01-03 03:48:00,27.5,-3.8,30.04,NW,315,2.3,0.0,25,0.00,CLR,,0.00,WeatherDisplay:10.37,2013-01-03 08:48:00,
2013-01-03 03:53:00,27.5,-3.8,30.04,NW,315,4.6,4.6,25,0.00,CLR,,0.00,WeatherDisplay:10.37,2013-01-03 08:53:00,
2013-01-03 03:58:00,27.5,-4.6,30.04,West,270,4.6,4.6,24,0.00,CLR,,0.00,WeatherDisplay:10.37,2013-01-03 08:58:00,
2013-01-03 04:03:00,27.7,-4.5,30.04,NW,315,5.8,5.8,24,0.00,CLR,,0.00,WeatherDisplay:10.37,2013-01-03 09:03:00,
2013-01-03 04:08:00,27.7,-4.5,30.03,NW,315,3.5,3.5,24,0.00,CLR,,0.00,WeatherDisplay:10.37,2013-01-03 09:08:00,
2013-01-03 04:13:00,27.5,-4.6,30.04,North,0,2.3,2.3,24,0.00,CLR,,0.00,WeatherDisplay:10.37,2013-01-03 09:13:00,
2013-01-03 04:18:00,27.5,-3.8,30.03,West,270,5.8,0.0,25,0.00,CLR,,0.00,WeatherDisplay:10.37,2013-01-03 09:18:00,
2013-01-03 04:23:00,27.5,-3.8,30.04,WSW,248,1.1,0.0,25,0.00,CLR,,0.00,WeatherDisplay:10.37,2013-01-03 09:23:00,
2013-01-03 04:28:00,27.3,-3.9,30.03,NW,315,2.3,0.0,25,0.00,CLR,,0.00,WeatherDisplay:10.37,2013-01-03 09:28:00,
2013-01-03 04:33:00,27.3,-3.9,30.03,North,0,1.1,0.0,25,0.00,CLR,,0.00,WeatherDisplay:10.37,2013-01-03 09:33:00,
2013-01-03 04:38:00,27.1,-4.1,30.03,North,0,3.5,0.0,25,0.00,CLR,,0.00,WeatherDisplay:10.37,2013-01-03 09:38:00,
2013-01-03 04:43:00,27.0,-5.1,30.04,South,180,1.6,0.0,24,0.00,CLR,,0.00,WeatherDisplay:10.37,2013-01-03 09:43:00,
2013-01-03 04:48:00,26.8,-5.3,30.04,West,270,3.5,0.0,24,0.00,CLR,,0.00,WeatherDisplay:10.37,2013-01-03 09:48:00,
2013-01-03 04:53:00,26.6,-4.6,30.05,NW,315,2.3,0.0,25,0.00,CLR,,0.00,WeatherDisplay:10.37,2013-01-03 09:53:00,
2013-01-03 04:58:00,26.4,-4.7,30.04,NW,315,1.1,1.1,25,0.00,CLR,,0.00,WeatherDisplay:10.37,2013-01-03 09:58:00,
2013-01-03 05:03:00,26.4,-4.7,30.05,NW,315,1.1,0.0,25,0.00,CLR,,0.00,WeatherDisplay:10.37,2013-01-03 10:03:00,
2013-01-03 05:09:00,26.4,-4.7,30.04,SW,225,1.1,0.0,25,0.00,CLR,,0.00,WeatherDisplay:10.37,2013-01-03 10:09:00,
2013-01-03 05:13:00,26.4,-3.9,30.04,SW,225,2.3,0.0,26,0.00,CLR,,0.00,WeatherDisplay:10.37,2013-01-03 10:13:00,
2013-01-03 05:19:00,26.4,-3.9,30.04,NW,315,1.1,1.1,26,0.00,CLR,,0.00,WeatherDisplay:10.37,2013-01-03 10:19:00,
2013-01-03 05:24:00,26.2,-4.1,30.04,West,270,2.3,0.0,26,0.00,CLR,,0.00,WeatherDisplay:10.37,2013-01-03 10:24:00,
2013-01-03 05:29:00,26.1,-3.4,30.04,NW,315,2.3,2.3,27,0.00,CLR,,0.00,WeatherDisplay:10.37,2013-01-03 10:29:00,
2013-01-03 05:34:00,26.1,-3.4,30.04,North,0,3.5,3.5,27,0.00,CLR,,0.00,WeatherDisplay:10.37,2013-01-03 10:34:00,
2013-01-03 05:39:00,26.1,-2.7,30.05,NW,315,2.3,2.3,28,0.00,CLR,,0.00,WeatherDisplay:10.37,2013-01-03 10:39:00,
2013-01-03 05:44:00,26.1,-2.7,30.04,West,270,3.5,3.5,28,0.00,CLR,,0.00,WeatherDisplay:10.37,2013-01-03 10:44:00,
2013-01-03 05:49:00,26.1,-2.7,30.04,West,270,2.3,0.0,28,0.00,CLR,,0.00,WeatherDisplay:10.37,2013-01-03 10:49:00,
2013-01-03 05:54:00,25.9,-2.8,30.04,West,270,0.0,0.0,28,0.00,CLR,,0.00,WeatherDisplay:10.37,2013-01-03 10:54:00,
2013-01-03 05:59:00,25.9,-2.8,30.04,NW,315,3.5,3.5,28,0.00,CLR,,0.00,WeatherDisplay:10.37,2013-01-03 10:59:00,
2013-01-03 06:04:00,25.9,-2.1,30.05,North,0,2.3,0.0,29,0.00,CLR,,0.00,WeatherDisplay:10.37,2013-01-03 11:04:00,
2013-01-03 06:09:00,26.1,-2.7,30.04,NW,315,3.5,3.5,28,0.00,CLR,,0.00,WeatherDisplay:10.37,2013-01-03 11:09:00,
2013-01-03 06:14:00,25.9,-2.8,30.04,NW,315,2.3,0.0,28,0.00,CLR,,0.00,WeatherDisplay:10.37,2013-01-03 11:14:00,
2013-01-03 06:19:00,25.7,-3.0,30.05,West,270,2.3,2.3,28,0.00,CLR,,0.00,WeatherDisplay:10.37,2013-01-03 11:19:00,
2013-01-03 06:24:00,25.7,-2.2,30.05,SW,225,1.1,1.1,29,0.00,CLR,,0.00,WeatherDisplay:10.37,2013-01-03 11:24:00,
2013-01-03 06:29:00,25.3,-2.5,30.04,West,270,1.1,0.0,29,0.00,CLR,,0.00,WeatherDisplay:10.37,2013-01-03 11:29:00,
2013-01-03 06:34:00,25.2,-2.7,30.05,West,270,0.0,0.0,29,0.00,CLR,,0.00,WeatherDisplay:10.37,2013-01-03 11:34:00,
2013-01-03 06:39:00,24.8,-3.0,30.04,South,180,0.0,0.0,29,0.00,CLR,,0.00,WeatherDisplay:10.37,2013-01-03 11:39:00,
2013-01-03 06:44:00,24.6,-3.2,30.05,SW,225,0.0,0.0,29,0.00,CLR,,0.00,WeatherDisplay:10.37,2013-01-03 11:44:00,
2013-01-03 06:49:00,24.3,-3.5,30.05,West,270,0.0,0.0,29,0.00,CLR,,0.00,WeatherDisplay:10.37,2013-01-03 11:49:00,
2013-01-03 06:54:00,24.3,-2.1,30.05,South,180,2.3,0.0,31,0.00,CLR,,0.00,WeatherDisplay:10.37,2013-01-03 11:54:00,
2013-01-03 06:59:00,24.3,-2.1,30.05,NW,315,0.0,0.0,31,0.00,CLR,,0.00,WeatherDisplay:10.37,2013-01-03 11:59:00,
2013-01-03 07:04:00,24.1,-2.2,30.05,South,180,0.0,0.0,31,0.00,CLR,,0.00,WeatherDisplay:10.37,2013-01-03 12:04:00,
2013-01-03 07:09:00,23.9,-2.4,30.05,South,180,0.0,0.0,31,0.00,CLR,,0.00,WeatherDisplay:10.37,2013-01-03 12:09:00,
2013-01-03 07:14:00,23.9,-2.4,30.06,South,180,0.0,0.0,31,0.00,CLR,,0.00,WeatherDisplay:10.37,2013-01-03 12:14:00,
2013-01-03 07:19:00,23.7,-2.6,30.05,South,180,0.0,0.0,31,0.00,CLR,,0.00,WeatherDisplay:10.37,2013-01-03 12:19:00,
2013-01-03 07:24:00,23.5,-2.7,30.06,South,180,0.0,0.0,31,0.00,CLR,,0.00,WeatherDisplay:10.37,2013-01-03 12:24:00,
2013-01-03 07:29:00,23.5,-2.1,30.05,West,270,0.0,0.0,32,0.00,CLR,,0.00,WeatherDisplay:10.37,2013-01-03 12:29:00,
2013-01-03 07:34:00,23.7,-1.2,30.05,SW,225,0.0,0.0,33,0.00,CLR,,0.00,WeatherDisplay:10.37,2013-01-03 12:34:00,
2013-01-03 07:39:00,23.7,-1.2,30.06,SW,225,0.0,0.0,33,0.00,CLR,,0.00,WeatherDisplay:10.37,2013-01-03 12:39:00,
2013-01-03 07:44:00,23.7,-1.2,30.06,SW,225,0.0,0.0,33,0.00,CLR,,0.00,WeatherDisplay:10.37,2013-01-03 12:44:00,
2013-01-03 07:49:00,23.7,-1.2,30.05,SW,225,0.0,0.0,33,0.00,CLR,,0.00,WeatherDisplay:10.37,2013-01-03 12:49:00,
2013-01-03 07:54:00,23.9,-0.4,30.05,SW,225,0.0,0.0,34,0.00,CLR,,0.00,WeatherDisplay:10.37,2013-01-03 12:54:00,
2013-01-03 07:59:00,23.9,0.2,30.05,West,270,0.0,0.0,35,0.00,CLR,,0.00,WeatherDisplay:10.37,2013-01-03 12:59:00,
2013-01-03 08:04:00,24.3,0.5,30.05,South,180,0.0,0.0,35,0.00,CLR,,0.00,WeatherDisplay:10.37,2013-01-03 13:04:00,
2013-01-03 08:09:00,24.4,1.3,30.05,South,180,1.1,0.0,36,0.00,CLR,,0.00,WeatherDisplay:10.37,2013-01-03 13:09:00,
2013-01-03 08:14:00,24.8,1.0,30.05,South,180,2.3,0.0,35,0.00,CLR,,0.00,WeatherDisplay:10.37,2013-01-03 13:14:00,
2013-01-03 08:19:00,25.0,1.1,30.05,South,180,0.0,0.0,35,0.00,CLR,,0.00,WeatherDisplay:10.37,2013-01-03 13:19:00,
2013-01-03 08:24:00,25.3,0.8,30.05,NW,315,0.0,0.0,34,0.00,CLR,,0.00,WeatherDisplay:10.37,2013-01-03 13:24:00,
2013-01-03 08:29:00,25.7,1.2,30.04,South,180,2.3,2.3,34,0.00,CLR,,0.00,WeatherDisplay:10.37,2013-01-03 13:29:00,
2013-01-03 08:34:00,26.2,1.0,30.05,NW,315,1.1,0.0,33,0.00,CLR,,0.00,WeatherDisplay:10.37,2013-01-03 13:34:00,
2013-01-03 08:39:00,26.6,0.7,30.05,NW,315,2.3,2.3,32,0.00,CLR,,0.00,WeatherDisplay:10.37,2013-01-03 13:39:00,
2013-01-03 08:44:00,26.8,0.1,30.05,West,270,3.5,0.0,31,0.00,CLR,,0.00,WeatherDisplay:10.37,2013-01-03 13:44:00,
2013-01-03 08:49:00,27.0,-0.4,30.05,West,270,2.3,2.3,30,0.00,CLR,,0.00,WeatherDisplay:10.37,2013-01-03 13:49:00,
2013-01-03 08:54:00,27.3,-0.8,30.05,NW,315,2.3,2.3,29,0.00,CLR,,0.00,WeatherDisplay:10.37,2013-01-03 13:54:00,
2013-01-03 08:59:00,27.9,-1.1,30.05,NNW,338,3.5,3.5,28,0.00,CLR,,0.00,WeatherDisplay:10.37,2013-01-03 13:59:00,
2013-01-03 09:04:00,28.0,-1.7,30.06,West,270,3.5,3.5,27,0.00,CLR,,0.00,WeatherDisplay:10.37,2013-01-03 14:04:00,
2013-01-03 09:09:00,28.2,-1.5,30.06,North,0,3.5,3.5,27,0.00,CLR,,0.00,WeatherDisplay:10.37,2013-01-03 14:09:00,
2013-01-03 09:14:00,28.6,-2.0,30.06,NW,315,3.5,3.5,26,0.00,CLR,,0.00,WeatherDisplay:10.37,2013-01-03 14:14:00,
2013-01-03 09:19:00,28.8,-2.7,30.06,NW,315,4.6,0.0,25,0.00,CLR,,0.00,WeatherDisplay:10.37,2013-01-03 14:19:00,
2013-01-03 09:24:00,29.1,-3.3,30.06,West,270,3.5,3.5,24,0.00,CLR,,0.00,WeatherDisplay:10.37,2013-01-03 14:24:00,
2013-01-03 09:29:00,29.5,-3.8,30.06,North,0,3.5,3.5,23,0.00,CLR,,0.00,WeatherDisplay:10.37,2013-01-03 14:29:00,
2013-01-03 09:34:00,29.7,-4.6,30.06,North,0,3.5,3.5,22,0.00,CLR,,0.00,WeatherDisplay:10.37,2013-01-03 14:34:00,
2013-01-03 09:39:00,30.0,-5.3,30.06,NW,315,3.5,3.5,21,0.00,CLR,,0.00,WeatherDisplay:10.37,2013-01-03 14:39:00,
2013-01-03 09:44:00,30.4,-7.0,30.06,NW,315,4.6,4.6,19,0.00,CLR,,0.00,WeatherDisplay:10.37,2013-01-03 14:44:00,
2013-01-03 09:49:00,30.7,-6.7,30.06,NW,315,3.5,3.5,19,0.00,CLR,,0.00,WeatherDisplay:10.37,2013-01-03 14:49:00,
2013-01-03 09:55:00,30.9,-7.7,30.06,North,0,3.5,3.5,18,0.00,CLR,,0.00,WeatherDisplay:10.37,2013-01-03 14:55:00,
2013-01-03 10:00:00,30.9,-8.9,30.06,WNW,292,5.8,5.8,17,0.00,CLR,,0.00,WeatherDisplay:10.37,2013-01-03 15:00:00,
2013-01-03 10:05:00,31.3,-8.6,30.06,NW,315,3.5,3.5,17,0.00,CLR,,0.00,WeatherDisplay:10.37,2013-01-03 15:05:00,
2013-01-03 10:10:00,31.5,-9.7,30.06,NW,315,3.5,3.5,16,0.00,CLR,,0.00,WeatherDisplay:10.37,2013-01-03 15:10:00,
2013-01-03 10:15:00,31.5,-11.0,30.06,NW,305,1.0,5.0,15,0.00,CLR,,0.00,WeatherDisplay:10.37,2013-01-03 15:15:00,
2013-01-03 10:20:00,31.6,-10.8,30.06,NW,318,1.0,5.0,15,0.00,CLR,,0.00,WeatherDisplay:10.37,2013-01-03 15:20:00,
2013-01-03 10:25:00,32.0,-11.9,30.06,NW,326,1.0,5.0,14,0.00,CLR,,0.00,WeatherDisplay:10.37,2013-01-03 15:25:00,
2013-01-03 10:30:00,33.3,-12.4,30.06,West,270,3.5,3.5,13,0.00,CLR,,0.00,WeatherDisplay:10.37,2013-01-03 15:30:00,
2013-01-03 10:35:00,34.7,-12.8,30.05,WNW,293,2.0,5.0,12,0.00,CLR,,0.00,WeatherDisplay:10.37,2013-01-03 15:35:00,
2013-01-03 10:40:00,36.1,-13.5,30.05,WNW,299,2.0,6.0,11,0.00,CLR,,0.00,WeatherDisplay:10.37,2013-01-03 15:40:00,
2013-01-03 10:45:00,36.8,-12.9,30.05,WNW,289,1.0,6.0,11,0.00,CLR,,0.00,WeatherDisplay:10.37,2013-01-03 15:45:00,
2013-01-03 10:50:00,38.3,-11.8,30.04,NW,315,3.5,3.5,11,0.00,CLR,,0.00,WeatherDisplay:10.37,2013-01-03 15:50:00,
2013-01-03 10:55:00,38.1,-11.9,30.04,WSW,252,2.0,6.0,11,0.00,CLR,,0.00,WeatherDisplay:10.37,2013-01-03 15:55:00,
2013-01-03 11:00:00,36.7,-13.0,30.04,East,90,6.9,6.9,11,0.00,CLR,,0.00,WeatherDisplay:10.37,2013-01-03 16:00:00,
2013-01-03 11:05:00,36.9,-12.9,30.03,WSW,249,1.0,6.0,11,0.00,CLR,,0.00,WeatherDisplay:10.37,2013-01-03 16:05:00,
2013-01-03 11:10:00,37.8,-12.2,30.03,WNW,300,1.0,5.0,11,0.00,CLR,,0.00,WeatherDisplay:10.37,2013-01-03 16:10:00,
2013-01-03 11:15:00,38.0,-12.0,30.03,West,263,2.0,9.0,11,0.00,CLR,,0.00,WeatherDisplay:10.37,2013-01-03 16:15:00,
2013-01-03 11:20:00,39.2,-11.0,30.03,NE,45,5.8,5.8,11,0.00,CLR,,0.00,WeatherDisplay:10.37,2013-01-03 16:20:00,
2013-01-03 11:25:00,39.0,-11.2,30.02,WNW,288,2.0,6.0,11,0.00,CLR,,0.00,WeatherDisplay:10.37,2013-01-03 16:25:00,
2013-01-03 11:30:00,39.0,-11.2,30.02,NW,315,2.3,3.1,11,0.00,CLR,,0.00,WeatherDisplay:10.37,2013-01-03 16:30:00,
2013-01-03 11:35:00,39.6,-10.7,30.01,SE,143,0.0,8.0,11,0.00,CLR,,0.00,WeatherDisplay:10.37,2013-01-03 16:35:00,
2013-01-03 11:40:00,39.4,-10.9,30.01,WNW,292,5.8,5.8,11,0.00,CLR,,0.00,WeatherDisplay:10.37,2013-01-03 16:40:00,
2013-01-03 11:45:00,39.0,-11.2,30.01,NW,315,5.8,5.8,11,0.00,CLR,,0.00,WeatherDisplay:10.37,2013-01-03 16:45:00,
2013-01-03 11:50:00,39.3,-10.9,30.01,WNW,282,2.0,6.0,11,0.00,CLR,,0.00,WeatherDisplay:10.37,2013-01-03 16:50:00,
2013-01-03 11:55:00,39.0,-11.2,30.01,NW,315,9.2,9.2,11,0.00,CLR,,0.00,WeatherDisplay:10.37,2013-01-03 16:55:00,
2013-01-03 12:00:00,38.7,-11.4,30.00,South,188,5.0,8.0,11,0.00,CLR,,0.00,WeatherDisplay:10.37,2013-01-03 17:00:00,
2013-01-03 12:05:00,39.0,-11.2,30.00,SSE,166,2.0,10.0,11,0.00,CLR,,0.00,WeatherDisplay:10.37,2013-01-03 17:05:00,
2013-01-03 12:10:00,37.8,-12.2,30.00,ENE,68,10.4,10.4,11,0.00,CLR,,0.00,WeatherDisplay:10.37,2013-01-03 17:10:00,
2013-01-03 12:15:00,37.6,-12.3,30.00,SW,229,2.0,10.0,11,0.00,CLR,,0.00,WeatherDisplay:10.37,2013-01-03 17:15:00,
2013-01-03 12:20:00,37.2,-12.6,30.00,South,180,4.6,4.6,11,0.00,CLR,,0.00,WeatherDisplay:10.37,2013-01-03 17:20:00,
2013-01-03 12:25:00,37.0,-12.7,29.99,North,0,10.4,10.4,11,0.00,CLR,,0.00,WeatherDisplay:10.37,2013-01-03 17:25:00,
2013-01-03 12:30:00,37.6,-12.3,29.99,South,179,2.0,11.0,11,0.00,CLR,,0.00,WeatherDisplay:10.37,2013-01-03 17:30:00,
2013-01-03 12:35:00,38.3,-11.8,29.99,East,90,9.2,9.2,11,0.00,CLR,,0.00,WeatherDisplay:10.37,2013-01-03 17:35:00,
2013-01-03 12:40:00,38.3,-11.8,29.98,SSW,202,5.8,5.8,11,0.00,CLR,,0.00,WeatherDisplay:10.37,2013-01-03 17:40:00,
2013-01-03 12:45:00,37.5,-12.4,29.98,SSW,208,1.0,12.0,11,0.00,CLR,,0.00,WeatherDisplay:10.37,2013-01-03 17:45:00,
2013-01-03 12:50:00,37.4,-12.5,29.98,East,90,5.8,5.8,11,0.00,CLR,,0.00,WeatherDisplay:10.37,2013-01-03 17:50:00,
2013-01-03 12:55:00,36.5,-13.2,29.98,SW,225,6.9,6.9,11,0.00,CLR,,0.00,WeatherDisplay:10.37,2013-01-03 17:55:00,
2013-01-03 13:00:00,36.1,-13.5,29.97,South,187,3.0,11.0,11,0.00,CLR,,0.00,WeatherDisplay:10.37,2013-01-03 18:00:00,
2013-01-03 13:05:00,36.3,-13.3,29.97,South,180,5.8,5.8,11,0.00,CLR,,0.00,WeatherDisplay:10.37,2013-01-03 18:05:00,
2013-01-03 13:10:00,36.2,-13.4,29.97,South,177,2.0,13.0,11,0.00,CLR,,0.00,WeatherDisplay:10.37,2013-01-03 18:10:00,
2013-01-03 13:15:00,37.2,-12.6,29.97,SSW,194,3.0,8.0,11,0.00,CLR,,0.00,WeatherDisplay:10.37,2013-01-03 18:15:00,
2013-01-03 13:20:00,37.4,-12.5,29.97,South,180,13.8,13.8,11,0.00,CLR,,0.00,WeatherDisplay:10.37,2013-01-03 18:20:00,
2013-01-03 13:25:00,37.9,-12.0,29.97,South,186,2.0,12.0,11,0.00,CLR,,0.00,WeatherDisplay:10.37,2013-01-03 18:25:00,
2013-01-03 13:30:00,38.7,-11.5,29.97,South,169,3.0,10.0,11,0.00,CLR,,0.00,WeatherDisplay:10.37,2013-01-03 18:30:00,
2013-01-03 13:35:00,39.4,-10.9,29.96,North,0,8.1,8.1,11,0.00,CLR,,0.00,WeatherDisplay:10.37,2013-01-03 18:35:00,
2013-01-03 13:40:00,39.8,-10.6,29.96,North,353,3.0,9.0,11,0.00,CLR,,0.00,WeatherDisplay:10.37,2013-01-03 18:40:00,
2013-01-03 13:45:00,39.2,-11.0,29.96,South,180,9.2,9.2,11,0.00,CLR,,0.00,WeatherDisplay:10.37,2013-01-03 18:45:00,
2013-01-03 13:50:00,39.0,-11.2,29.96,West,270,8.1,8.1,11,0.00,CLR,,0.00,WeatherDisplay:10.37,2013-01-03 18:50:00,
2013-01-03 13:55:00,39.0,-11.2,29.96,SSW,204,6.0,12.0,11,0.00,CLR,,0.00,WeatherDisplay:10.37,2013-01-03 18:55:00,
2013-01-03 14:00:00,38.3,-11.8,29.96,South,180,9.2,9.2,11,0.00,CLR,,0.00,WeatherDisplay:10.37,2013-01-03 19:00:00,
2013-01-03 14:05:00,38.7,-11.5,29.96,West,270,8.1,8.1,11,0.00,CLR,,0.00,WeatherDisplay:10.37,2013-01-03 19:05:00,
2013-01-03 14:10:00,38.8,-11.3,29.96,SSE,148,3.0,8.0,11,0.00,CLR,,0.00,WeatherDisplay:10.37,2013-01-03 19:10:00,
2013-01-03 14:15:00,38.5,-11.6,29.96,NW,308,1.0,7.0,11,0.00,CLR,,0.00,WeatherDisplay:10.37,2013-01-03 19:15:00,
2013-01-03 14:54:00,38.8,-11.3,29.96,SW,225,9.2,9.2,11,0.00,CLR,,0.00,WeatherDisplay:10.37,2013-01-03 19:54:00,
2013-01-03 14:59:00,37.4,-12.5,29.95,SW,225,5.8,5.8,11,0.00,CLR,,0.00,WeatherDisplay:10.37,2013-01-03 19:59:00,
2013-01-03 15:04:00,36.1,-13.5,29.95,South,180,8.1,8.1,11,0.00,CLR,,0.00,WeatherDisplay:10.37,2013-01-03 20:04:00,
2013-01-03 15:09:00,35.4,-14.0,29.96,SSW,202,12.7,12.7,11,0.00,CLR,,0.00,WeatherDisplay:10.37,2013-01-03 20:09:00,
2013-01-03 15:14:00,35.2,-14.2,29.95,NW,315,6.9,6.9,11,0.00,CLR,,0.00,WeatherDisplay:10.37,2013-01-03 20:14:00,
2013-01-03 15:19:00,35.1,-14.3,29.95,South,180,10.4,10.4,11,0.00,CLR,,0.00,WeatherDisplay:10.37,2013-01-03 20:19:00,
2013-01-03 15:24:00,35.1,-14.3,29.95,South,180,6.9,6.9,11,0.00,CLR,,0.00,WeatherDisplay:10.37,2013-01-03 20:24:00,
2013-01-03 15:29:00,35.1,-14.3,29.95,SW,225,10.4,10.4,11,0.00,CLR,,0.00,WeatherDisplay:10.37,2013-01-03 20:29:00,
2013-01-03 15:34:00,34.9,-14.4,29.95,ENE,68,8.1,8.1,11,0.00,CLR,,0.00,WeatherDisplay:10.37,2013-01-03 20:34:00,
2013-01-03 15:39:00,34.7,-14.6,29.95,NE,45,8.3,8.3,11,0.00,CLR,,0.00,WeatherDisplay:10.37,2013-01-03 20:39:00,
2013-01-03 15:44:00,34.5,-14.7,29.95,NW,315,3.5,3.5,11,0.00,CLR,,0.00,WeatherDisplay:10.37,2013-01-03 20:44:00,
2013-01-03 15:49:00,34.3,-14.9,29.95,South,180,5.8,5.8,11,0.00,CLR,,0.00,WeatherDisplay:10.37,2013-01-03 20:49:00,
2013-01-03 15:54:00,34.3,-14.9,29.95,NW,315,10.4,10.4,11,0.00,CLR,,0.00,WeatherDisplay:10.37,2013-01-03 20:54:00,
2013-01-03 15:59:00,34.3,-14.9,29.95,South,180,8.1,8.1,11,0.00,CLR,,0.00,WeatherDisplay:10.37,2013-01-03 20:59:00,
2013-01-03 16:04:00,34.2,-15.0,29.95,South,180,5.8,5.8,11,0.00,CLR,,0.00,WeatherDisplay:10.37,2013-01-03 21:04:00,
2013-01-03 16:09:00,34.0,-15.2,29.95,North,0,4.6,4.6,11,0.00,CLR,,0.00,WeatherDisplay:10.37,2013-01-03 21:09:00,
2013-01-03 16:14:00,33.8,-15.3,29.95,South,180,12.7,12.7,11,0.00,CLR,,0.00,WeatherDisplay:10.37,2013-01-03 21:14:00,
2013-01-03 16:19:00,33.8,-15.3,29.95,South,180,5.8,5.8,11,0.00,CLR,,0.00,WeatherDisplay:10.37,2013-01-03 21:19:00,
2013-01-03 16:24:00,33.6,-15.4,29.95,NW,315,8.1,8.1,11,0.00,CLR,,0.00,WeatherDisplay:10.37,2013-01-03 21:24:00,
2013-01-03 16:29:00,33.4,-15.6,29.95,South,180,5.8,5.8,11,0.00,CLR,,0.00,WeatherDisplay:10.37,2013-01-03 21:29:00,
2013-01-03 16:34:00,33.3,-15.7,29.95,SSE,158,8.1,8.1,11,0.00,CLR,,0.00,WeatherDisplay:10.37,2013-01-03 21:34:00,
2013-01-03 16:39:00,33.1,-15.9,29.95,South,180,5.8,5.8,11,0.00,CLR,,0.00,WeatherDisplay:10.37,2013-01-03 21:39:00,
2013-01-03 16:44:00,32.9,-16.0,29.95,South,180,5.8,5.8,11,0.00,CLR,,0.00,WeatherDisplay:10.37,2013-01-03 21:44:00,
2013-01-03 16:49:00,32.7,-16.1,29.96,SSE,158,3.5,3.5,11,0.00,CLR,,0.00,WeatherDisplay:10.37,2013-01-03 21:49:00,
2013-01-03 16:54:00,32.5,-16.3,29.96,East,90,5.8,5.8,11,0.00,CLR,,0.00,WeatherDisplay:10.37,2013-01-03 21:54:00,
2013-01-03 16:59:00,32.4,-16.4,29.97,West,270,3.5,0.0,11,0.00,CLR,,0.00,WeatherDisplay:10.37,2013-01-03 21:59:00,
2013-01-03 17:04:00,32.2,-16.6,29.97,South,180,3.5,0.0,11,0.00,CLR,,0.00,WeatherDisplay:10.37,2013-01-03 22:04:00,
2013-01-03 17:09:00,32.0,-16.7,29.97,West,270,2.3,2.3,11,0.00,CLR,,0.00,WeatherDisplay:10.37,2013-01-03 22:09:00,
2013-01-03 17:14:00,32.0,-16.7,29.97,North,0,4.6,4.6,11,0.00,CLR,,0.00,WeatherDisplay:10.37,2013-01-03 22:14:00,
2013-01-03 17:19:00,31.8,-16.9,29.97,South,180,4.6,4.6,11,0.00,CLR,,0.00,WeatherDisplay:10.37,2013-01-03 22:19:00,
2013-01-03 17:25:00,31.6,-17.0,29.97,SSW,202,5.8,5.8,11,0.00,CLR,,0.00,WeatherDisplay:10.37,2013-01-03 22:25:00,
2013-01-03 17:30:00,31.5,-17.1,29.97,South,174,1.0,5.0,11,0.00,CLR,,0.00,WeatherDisplay:10.37,2013-01-03 22:30:00,
2013-01-03 17:35:00,31.3,-17.3,29.97,South,180,3.5,0.0,11,0.00,CLR,,0.00,WeatherDisplay:10.37,2013-01-03 22:35:00,
2013-01-03 17:40:00,31.1,-17.4,29.97,South,170,1.0,6.0,11,0.00,CLR,,0.00,WeatherDisplay:10.37,2013-01-03 22:40:00,
2013-01-03 17:45:00,30.9,-17.6,29.97,West,270,2.3,0.0,11,0.00,CLR,,0.00,WeatherDisplay:10.37,2013-01-03 22:45:00,
2013-01-03 17:50:00,30.7,-17.7,29.98,NW,315,3.5,3.5,11,0.00,CLR,,0.00,WeatherDisplay:10.37,2013-01-03 22:50:00,
2013-01-03 17:55:00,30.6,-17.9,29.98,SSW,202,2.3,2.3,11,0.00,CLR,,0.00,WeatherDisplay:10.37,2013-01-03 22:55:00,
2013-01-03 18:00:00,30.6,-17.9,29.98,SW,225,2.3,2.3,11,0.00,CLR,,0.00,WeatherDisplay:10.37,2013-01-03 23:00:00,
2013-01-03 18:05:00,30.6,-19.7,29.98,SE,133,1.0,6.0,10,0.00,CLR,,0.00,WeatherDisplay:10.37,2013-01-03 23:05:00,
2013-01-03 18:10:00,30.4,-19.8,29.98,South,180,5.8,5.8,10,0.00,CLR,,0.00,WeatherDisplay:10.37,2013-01-03 23:10:00,
2013-01-03 18:15:00,30.6,-19.7,29.99,South,180,3.5,3.5,10,0.00,CLR,,0.00,WeatherDisplay:10.37,2013-01-03 23:15:00,
2013-01-03 18:20:00,30.6,-19.7,29.98,South,176,1.0,8.0,10,0.00,CLR,,0.00,WeatherDisplay:10.37,2013-01-03 23:20:00,
2013-01-03 18:25:00,30.6,-19.7,29.98,South,180,5.8,5.8,10,0.00,CLR,,0.00,WeatherDisplay:10.37,2013-01-03 23:25:00,
2013-01-03 18:30:00,30.4,-18.0,29.99,South,180,3.5,3.5,11,0.00,CLR,,0.00,WeatherDisplay:10.37,2013-01-03 23:30:00,
2013-01-03 18:35:00,30.4,-18.0,29.98,South,170,0.0,5.0,11,0.00,CLR,,0.00,WeatherDisplay:10.37,2013-01-03 23:35:00,
2013-01-03 18:40:00,30.2,-18.1,29.99,NW,315,3.5,3.5,11,0.00,CLR,,0.00,WeatherDisplay:10.37,2013-01-03 23:40:00,
2013-01-03 18:45:00,30.2,-16.4,29.99,SE,135,3.5,3.5,12,0.00,CLR,,0.00,WeatherDisplay:10.37,2013-01-03 23:45:00,
2013-01-03 18:50:00,30.2,-16.5,29.99,SSW,193,0.0,6.0,12,0.00,CLR,,0.00,WeatherDisplay:10.37,2013-01-03 23:50:00,
2013-01-03 18:55:00,30.0,-16.6,29.99,South,180,3.5,3.5,12,0.00,CLR,,0.00,WeatherDisplay:10.37,2013-01-03 23:55:00,
2013-01-03 19:00:00,30.0,-16.6,29.99,SSE,159,1.0,6.0,12,0.00,CLR,,0.00,WeatherDisplay:10.37,2013-01-04 00:00:00,
2013-01-03 19:05:00,30.0,-16.6,29.99,SW,225,5.8,5.8,12,0.00,CLR,,0.00,WeatherDisplay:10.37,2013-01-04 00:05:00,
2013-01-03 19:10:00,30.2,-16.4,29.99,South,180,5.8,5.8,12,0.00,CLR,,0.00,WeatherDisplay:10.37,2013-01-04 00:10:00,
2013-01-03 19:15:00,30.2,-16.4,29.99,SSW,199,1.0,6.0,12,0.00,CLR,,0.00,WeatherDisplay:10.37,2013-01-04 00:15:00,
2013-01-03 19:20:00,30.0,-16.6,29.99,SSW,202,5.8,5.8,12,0.00,CLR,,0.00,WeatherDisplay:10.37,2013-01-04 00:20:00,
2013-01-03 19:25:00,30.0,-15.0,29.99,South,180,3.5,3.5,13,0.00,CLR,,0.00,WeatherDisplay:10.37,2013-01-04 00:25:00,
2013-01-03 19:30:00,29.8,-15.1,29.99,SSE,167,3.0,8.0,13,0.00,CLR,,0.00,WeatherDisplay:10.37,2013-01-04 00:30:00,
2013-01-03 19:35:00,30.0,-15.0,29.99,South,180,4.6,4.6,13,0.00,CLR,,0.00,WeatherDisplay:10.37,2013-01-04 00:35:00,
2013-01-03 19:40:00,29.8,-15.1,29.99,South,180,5.8,5.8,13,0.00,CLR,,0.00,WeatherDisplay:10.37,2013-01-04 00:40:00,
2013-01-03 19:45:00,29.8,-15.1,29.99,SSW,201,1.0,8.0,13,0.00,CLR,,0.00,WeatherDisplay:10.37,2013-01-04 00:45:00,
2013-01-03 19:50:00,29.8,-15.1,29.99,SW,225,8.1,8.1,13,0.00,CLR,,0.00,WeatherDisplay:10.37,2013-01-04 00:50:00,
2013-01-03 19:55:00,29.8,-15.1,29.99,South,186,2.0,8.0,13,0.00,CLR,,0.00,WeatherDisplay:10.37,2013-01-04 00:55:00,
2013-01-03 20:00:00,29.8,-13.7,29.99,South,180,5.8,5.8,14,0.00,CLR,,0.00,WeatherDisplay:10.37,2013-01-04 01:00:00,
2013-01-03 20:05:00,29.8,-13.7,29.99,South,180,5.8,5.8,14,0.00,CLR,,0.00,WeatherDisplay:10.37,2013-01-04 01:05:00,
2013-01-03 20:10:00,29.8,-12.3,29.98,South,181,2.0,6.0,15,0.00,CLR,,0.00,WeatherDisplay:10.37,2013-01-04 01:10:00,
2013-01-03 20:15:00,30.0,-12.2,29.98,South,170,2.0,7.0,15,0.00,CLR,,0.00,WeatherDisplay:10.37,2013-01-04 01:15:00,
2013-01-03 20:20:00,29.8,-12.3,29.98,SE,135,4.6,4.6,15,0.00,CLR,,0.00,WeatherDisplay:10.37,2013-01-04 01:20:00,
2013-01-03 20:25:00,29.8,-11.0,29.98,South,188,2.0,6.0,16,0.00,CLR,,0.00,WeatherDisplay:10.37,2013-01-04 01:25:00,
2013-01-03 20:30:00,29.7,-11.1,29.98,South,182,2.0,5.0,16,0.00,CLR,,0.00,WeatherDisplay:10.37,2013-01-04 01:30:00,
2013-01-03 20:35:00,29.7,-9.9,29.98,South,185,3.0,6.0,17,0.00,CLR,,0.00,WeatherDisplay:10.37,2013-01-04 01:35:00,
2013-01-03 20:40:00,29.5,-10.1,29.99,SSW,192,2.0,6.0,17,0.00,CLR,,0.00,WeatherDisplay:10.37,2013-01-04 01:40:00,
2013-01-03 20:45:00,29.3,-9.1,29.98,SSW,198,2.0,6.0,18,0.00,CLR,,0.00,WeatherDisplay:10.37,2013-01-04 01:45:00,
2013-01-03 20:50:00,29.3,-9.1,29.98,South,185,1.0,7.0,18,0.00,CLR,,0.00,WeatherDisplay:10.37,2013-01-04 01:50:00,
2013-01-03 20:55:00,29.1,-8.1,29.98,South,180,4.6,4.6,19,0.00,CLR,,0.00,WeatherDisplay:10.37,2013-01-04 01:55:00,
2013-01-03 21:00:00,28.9,-8.3,29.98,South,180,3.5,3.5,19,0.00,CLR,,0.00,WeatherDisplay:10.37,2013-01-04 02:00:00,
2013-01-03 21:05:00,28.8,-7.3,29.99,South,176,2.0,5.0,20,0.00,CLR,,0.00,WeatherDisplay:10.37,2013-01-04 02:05:00,
2013-01-03 21:10:00,28.8,-7.3,29.98,SE,135,5.8,5.8,20,0.00,CLR,,0.00,WeatherDisplay:10.37,2013-01-04 02:10:00,
2013-01-03 21:15:00,28.9,-7.2,29.98,South,180,5.8,5.8,20,0.00,CLR,,0.00,WeatherDisplay:10.37,2013-01-04 02:15:00,
2013-01-03 21:20:00,28.9,-7.2,29.98,South,176,1.0,6.0,20,0.00,CLR,,0.00,WeatherDisplay:10.37,2013-01-04 02:20:00,
2013-01-03 21:25:00,28.8,-6.3,29.98,South,180,3.5,3.5,21,0.00,CLR,,0.00,WeatherDisplay:10.37,2013-01-04 02:25:00,
2013-01-03 21:30:00,28.6,-6.5,29.97,South,180,5.8,5.8,21,0.00,CLR,,0.00,WeatherDisplay:10.37,2013-01-04 02:30:00,
2013-01-03 21:35:00,28.5,-5.6,29.98,SSW,213,2.0,5.0,22,0.00,CLR,,0.00,WeatherDisplay:10.37,2013-01-04 02:35:00,
2013-01-03 21:40:00,28.4,-5.7,29.98,South,180,3.5,3.5,22,0.00,CLR,,0.00,WeatherDisplay:10.37,2013-01-04 02:40:00,
2013-01-03 21:45:00,28.4,-5.7,29.97,SW,225,3.8,3.8,22,0.00,CLR,,0.00,WeatherDisplay:10.37,2013-01-04 02:45:00,
2013-01-03 21:50:00,28.4,-4.8,29.98,SE,135,3.5,3.5,23,0.00,CLR,,0.00,WeatherDisplay:10.37,2013-01-04 02:50:00,
2013-01-03 21:55:00,28.4,-3.9,29.98,South,180,5.8,5.8,24,0.00,CLR,,0.00,WeatherDisplay:10.37,2013-01-04 02:55:00,
2013-01-03 22:00:00,28.4,-3.9,29.97,South,180,5.8,5.8,24,0.00,CLR,,0.00,WeatherDisplay:10.37,2013-01-04 03:00:00,
2013-01-03 22:05:00,28.2,-4.0,29.97,South,180,4.6,4.6,24,0.00,CLR,,0.00,WeatherDisplay:10.37,2013-01-04 03:05:00,
2013-01-03 22:10:00,28.2,-3.2,29.97,SW,225,3.8,3.8,25,0.00,CLR,,0.00,WeatherDisplay:10.37,2013-01-04 03:10:00,
2013-01-03 22:15:00,28.2,-3.2,29.98,South,180,4.6,4.6,25,0.00,CLR,,0.00,WeatherDisplay:10.37,2013-01-04 03:15:00,
2013-01-03 22:20:00,28.2,-3.2,29.98,South,180,3.5,3.5,25,0.00,CLR,,0.00,WeatherDisplay:10.37,2013-01-04 03:20:00,
2013-01-03 22:25:00,28.2,-2.3,29.97,South,180,3.5,3.5,26,0.00,CLR,,0.00,WeatherDisplay:10.37,2013-01-04 03:25:00,
2013-01-03 22:30:00,28.2,-2.3,29.97,South,180,3.5,3.5,26,0.00,CLR,,0.00,WeatherDisplay:10.37,2013-01-04 03:30:00,
2013-01-03 22:35:00,28.2,-2.3,29.98,SE,135,3.5,3.5,26,0.00,CLR,,0.00,WeatherDisplay:10.37,2013-01-04 03:35:00,
2013-01-03 22:40:00,28.2,-1.5,29.97,South,180,5.8,5.8,27,0.00,CLR,,0.00,WeatherDisplay:10.37,2013-01-04 03:40:00,
2013-01-03 22:45:00,28.4,-1.4,29.98,East,90,5.8,5.8,27,0.00,CLR,,0.00,WeatherDisplay:10.37,2013-01-04 03:45:00,
2013-01-03 22:50:00,28.6,-1.2,29.98,South,180,12.7,12.7,27,0.00,CLR,,0.00,WeatherDisplay:10.37,2013-01-04 03:50:00,
2013-01-03 22:55:00,28.6,-2.0,29.98,South,180,8.1,8.1,26,0.00,CLR,,0.00,WeatherDisplay:10.37,2013-01-04 03:55:00,
2013-01-03 23:00:00,28.6,-1.2,29.98,South,180,8.1,8.1,27,0.00,CLR,,0.00,WeatherDisplay:10.37,2013-01-04 04:00:00,
2013-01-03 23:05:00,28.6,-1.2,29.98,South,180,8.1,8.1,27,0.00,CLR,,0.00,WeatherDisplay:10.37,2013-01-04 04:05:00,
2013-01-03 23:10:00,28.6,-0.5,29.98,South,180,8.1,8.1,28,0.00,CLR,,0.00,WeatherDisplay:10.37,2013-01-04 04:10:00,
2013-01-03 23:15:00,28.6,-0.5,29.98,NE,45,5.8,5.8,28,0.00,CLR,,0.00,WeatherDisplay:10.37,2013-01-04 04:15:00,
2013-01-03 23:20:00,28.6,-0.5,29.98,South,180,9.2,9.2,28,0.00,CLR,,0.00,WeatherDisplay:10.37,2013-01-04 04:20:00,
2013-01-03 23:25:00,28.8,-0.3,29.97,South,180,8.1,8.1,28,0.00,CLR,,0.00,WeatherDisplay:10.37,2013-01-04 04:25:00,
2013-01-03 23:30:00,28.8,-0.3,29.97,South,180,6.9,6.9,28,0.00,CLR,,0.00,WeatherDisplay:10.37,2013-01-04 04:30:00,
2013-01-03 23:35:00,28.8,-0.3,29.97,WSW,248,8.1,8.1,28,0.00,CLR,,0.00,WeatherDisplay:10.37,2013-01-04 04:35:00,
2013-01-03 23:40:00,28.8,-0.3,29.97,South,180,6.9,6.9,28,0.00,CLR,,0.00,WeatherDisplay:10.37,2013-01-04 04:40:00,
2013-01-03 23:45:00,28.8,0.4,29.97,South,180,9.2,9.2,29,0.00,CLR,,0.00,WeatherDisplay:10.37,2013-01-04 04:45:00,
2013-01-03 23:50:00,28.8,0.4,29.97,South,180,8.1,8.1,29,0.00,CLR,,0.00,WeatherDisplay:10.37,2013-01-04 04:50:00,
2013-01-03 23:55:00,28.8,0.4,29.96,SE,135,8.1,8.1,29,0.00,CLR,,0.00,WeatherDisplay:10.37,2013-01-04 04:55:00,